Time,TemperatureF,DewpointF,PressureIn,WindDirection,WindDirectionDegrees,WindSpeedMPH,WindSpeedGustMPH,Humidity,HourlyPrecipIn,Conditions,Clouds,dailyrainin,SoftwareType,DateUTC
2013-02-11 00:00:00,39.2,28.0,29.50,South,180,6.9,6.9,64,0.01,,,0.00,WUHU216HW,2013-02-11 05:00:00,
2013-02-11 00:05:00,39.2,28.0,29.50,South,180,6.9,6.9,64,0.01,,,0.00,WUHU216HW,2013-02-11 05:05:00,
2013-02-11 00:30:00,38.0,29.1,29.49,South,180,9.8,9.8,70,0.01,,,0.00,WUHU216HW,2013-02-11 05:30:00,
2013-02-11 00:35:00,38.0,29.1,29.49,South,180,9.8,9.8,70,0.01,,,0.00,WUHU216HW,2013-02-11 05:35:00,
2013-02-11 00:59:00,38.3,29.4,29.46,ESE,113,4.0,4.0,70,0.00,,,0.00,WUHU216HW,2013-02-11 05:59:00,
2013-02-11 01:00:00,38.3,29.4,29.46,ESE,113,4.0,4.0,70,0.00,,,0.00,WUHU216HW,2013-02-11 06:00:00,
2013-02-11 01:05:00,38.3,29.4,29.46,ESE,113,4.0,4.0,70,0.00,,,0.00,WUHU216HW,2013-02-11 06:05:00,
2013-02-11 01:29:00,37.8,29.6,29.46,SSE,158,2.2,2.2,72,0.01,,,0.00,WUHU216HW,2013-02-11 06:29:00,
2013-02-11 01:30:00,37.8,29.6,29.46,SSE,158,2.2,2.2,72,0.01,,,0.00,WUHU216HW,2013-02-11 06:30:00,
2013-02-11 01:35:00,37.8,29.6,29.46,SSE,158,2.2,2.2,72,0.01,,,0.00,WUHU216HW,2013-02-11 06:35:00,
2013-02-11 01:59:00,36.9,30.1,29.45,SSE,158,3.1,3.1,76,0.02,,,0.01,WUHU216HW,2013-02-11 06:59:00,
2013-02-11 02:00:00,36.9,30.1,29.45,SSE,158,3.1,3.1,76,0.02,,,0.01,WUHU216HW,2013-02-11 07:00:00,
2013-02-11 02:05:00,36.9,30.1,29.45,SSE,158,3.1,3.1,76,0.02,,,0.01,WUHU216HW,2013-02-11 07:05:00,
2013-02-11 02:29:00,36.5,31.0,29.42,SSE,158,5.1,5.1,80,0.01,,,0.02,WUHU216HW,2013-02-11 07:29:00,
2013-02-11 02:30:00,36.5,31.0,29.42,SSE,158,5.1,5.1,80,0.01,,,0.02,WUHU216HW,2013-02-11 07:30:00,
2013-02-11 02:35:00,36.5,31.0,29.42,SSE,158,5.1,5.1,80,0.01,,,0.02,WUHU216HW,2013-02-11 07:35:00,
2013-02-11 02:59:00,36.5,31.5,29.42,SSE,158,4.0,4.0,82,0.01,,,0.02,WUHU216HW,2013-02-11 07:59:00,
2013-02-11 03:00:00,36.5,31.5,29.42,SSE,158,4.0,4.0,82,0.01,,,0.02,WUHU216HW,2013-02-11 08:00:00,
2013-02-11 03:05:00,36.5,31.5,29.42,SSE,158,4.0,4.0,82,0.01,,,0.02,WUHU216HW,2013-02-11 08:05:00,
2013-02-11 03:30:00,36.7,31.7,29.38,WSW,248,1.8,1.8,82,0.02,,,0.03,WUHU216HW,2013-02-11 08:30:00,
2013-02-11 03:35:00,36.7,31.7,29.38,WSW,248,1.8,1.8,82,0.02,,,0.03,WUHU216HW,2013-02-11 08:35:00,
2013-02-11 03:59:00,36.7,31.7,29.37,South,180,0.0,0.0,82,0.01,,,0.04,WUHU216HW,2013-02-11 08:59:00,
2013-02-11 04:00:00,36.7,31.7,29.37,South,180,0.0,0.0,82,0.01,,,0.04,WUHU216HW,2013-02-11 09:00:00,
2013-02-11 04:05:00,36.7,31.7,29.37,South,180,0.0,0.0,82,0.01,,,0.04,WUHU216HW,2013-02-11 09:05:00,
2013-02-11 04:30:00,37.1,32.4,29.36,ESE,113,2.9,2.9,83,0.00,,,0.04,WUHU216HW,2013-02-11 09:30:00,
2013-02-11 04:35:00,37.1,32.4,29.36,ESE,113,2.9,2.9,83,0.00,,,0.04,WUHU216HW,2013-02-11 09:35:00,
2013-02-11 04:59:00,36.4,32.2,29.33,East,90,3.4,3.4,85,0.00,,,0.04,WUHU216HW,2013-02-11 09:59:00,
2013-02-11 05:00:00,36.4,32.2,29.33,East,90,3.4,3.4,85,0.00,,,0.04,WUHU216HW,2013-02-11 10:00:00,
2013-02-11 05:05:00,36.4,32.2,29.33,East,90,3.4,3.4,85,0.00,,,0.04,WUHU216HW,2013-02-11 10:05:00,
2013-02-11 05:29:00,36.4,32.2,29.33,ESE,113,1.8,1.8,85,0.00,,,0.04,WUHU216HW,2013-02-11 10:29:00,
2013-02-11 05:30:00,36.4,32.2,29.33,ESE,113,1.8,1.8,85,0.00,,,0.04,WUHU216HW,2013-02-11 10:30:00,
2013-02-11 05:35:00,36.4,32.2,29.33,ESE,113,1.8,1.8,85,0.00,,,0.04,WUHU216HW,2013-02-11 10:35:00,
2013-02-11 06:00:00,36.4,32.2,29.33,North,0,1.6,1.6,85,0.00,,,0.04,WUHU216HW,2013-02-11 11:00:00,
2013-02-11 06:05:00,36.4,32.2,29.33,North,0,1.6,1.6,85,0.00,,,0.04,WUHU216HW,2013-02-11 11:05:00,
2013-02-11 06:30:00,36.5,32.4,29.31,NE,45,2.5,2.5,85,0.00,,,0.04,WUHU216HW,2013-02-11 11:30:00,
2013-02-11 06:35:00,36.5,32.4,29.31,NE,45,2.5,2.5,85,0.00,,,0.04,WUHU216HW,2013-02-11 11:35:00,
2013-02-11 07:00:00,36.0,32.1,29.30,NE,45,1.1,1.1,86,0.00,,,0.04,WUHU216HW,2013-02-11 12:00:00,
2013-02-11 07:05:00,36.0,32.1,29.30,NE,45,1.1,1.1,86,0.00,,,0.04,WUHU216HW,2013-02-11 12:05:00,
2013-02-11 07:30:00,35.8,32.0,29.28,North,0,0.9,0.9,86,0.00,,,0.04,WUHU216HW,2013-02-11 12:30:00,
2013-02-11 07:35:00,35.8,32.0,29.28,North,0,0.9,0.9,86,0.00,,,0.04,WUHU216HW,2013-02-11 12:35:00,
2013-02-11 08:00:00,35.6,31.5,29.28,WSW,248,0.7,0.7,85,0.00,,,0.04,WUHU216HW,2013-02-11 13:00:00,
2013-02-11 08:05:00,35.6,31.5,29.28,WSW,248,0.7,0.7,85,0.00,,,0.04,WUHU216HW,2013-02-11 13:05:00,
2013-02-11 08:30:00,36.5,32.7,29.26,East,90,1.1,1.1,86,0.00,,,0.04,WUHU216HW,2013-02-11 13:30:00,
2013-02-11 08:35:00,36.5,32.7,29.26,East,90,1.1,1.1,86,0.00,,,0.04,WUHU216HW,2013-02-11 13:35:00,
2013-02-11 08:59:00,39.6,35.5,29.27,SSE,158,3.8,3.8,85,0.00,,,0.04,WUHU216HW,2013-02-11 13:59:00,
2013-02-11 09:00:00,39.6,35.5,29.27,SSE,158,3.8,3.8,85,0.00,,,0.04,WUHU216HW,2013-02-11 14:00:00,
2013-02-11 09:05:00,39.6,35.5,29.27,SSE,158,3.8,3.8,85,0.00,,,0.04,WUHU216HW,2013-02-11 14:05:00,
2013-02-11 09:29:00,42.5,38.3,29.27,SSW,203,3.6,3.6,85,0.00,,,0.04,WUHU216HW,2013-02-11 14:29:00,
2013-02-11 09:30:00,42.5,38.3,29.27,SSW,203,3.6,3.6,85,0.00,,,0.04,WUHU216HW,2013-02-11 14:30:00,
2013-02-11 09:35:00,42.5,38.3,29.27,SSW,203,3.6,3.6,85,0.00,,,0.04,WUHU216HW,2013-02-11 14:35:00,
2013-02-11 10:00:00,46.6,42.4,29.23,WSW,248,2.9,2.9,85,0.00,,,0.04,WUHU216HW,2013-02-11 15:00:00,
2013-02-11 10:05:00,46.6,42.4,29.23,WSW,248,2.9,2.9,85,0.00,,,0.04,WUHU216HW,2013-02-11 15:05:00,
2013-02-11 10:29:00,49.1,44.1,29.24,SW,225,9.4,9.4,83,0.00,,,0.04,WUHU216HW,2013-02-11 15:29:00,
2013-02-11 10:30:00,49.1,44.1,29.24,SW,225,9.4,9.4,83,0.00,,,0.04,WUHU216HW,2013-02-11 15:30:00,
2013-02-11 10:35:00,49.1,44.1,29.24,SW,225,9.4,9.4,83,0.00,,,0.04,WUHU216HW,2013-02-11 15:35:00,
2013-02-11 10:59:00,50.6,45.3,29.21,SW,225,4.5,4.5,82,0.00,,,0.04,WUHU216HW,2013-02-11 15:59:00,
2013-02-11 11:00:00,50.6,45.3,29.21,SW,225,4.5,4.5,82,0.00,,,0.04,WUHU216HW,2013-02-11 16:00:00,
2013-02-11 11:05:00,50.6,45.3,29.21,SW,225,4.5,4.5,82,0.00,,,0.04,WUHU216HW,2013-02-11 16:05:00,
2013-02-11 11:29:00,51.8,45.9,29.20,SW,225,3.8,3.8,80,0.00,,,0.04,WUHU216HW,2013-02-11 16:29:00,
2013-02-11 11:30:00,51.8,45.9,29.20,SW,225,3.8,3.8,80,0.00,,,0.04,WUHU216HW,2013-02-11 16:30:00,
2013-02-11 11:35:00,51.8,45.9,29.20,SW,225,3.8,3.8,80,0.00,,,0.04,WUHU216HW,2013-02-11 16:35:00,
2013-02-11 12:00:00,54.4,47.3,29.17,West,270,8.5,8.5,77,0.00,,,0.04,WUHU216HW,2013-02-11 17:00:00,
2013-02-11 12:05:00,54.4,47.3,29.17,West,270,8.5,8.5,77,0.00,,,0.04,WUHU216HW,2013-02-11 17:05:00,
2013-02-11 12:29:00,57.2,49.0,29.14,WSW,248,5.4,5.4,74,0.00,,,0.04,WUHU216HW,2013-02-11 17:29:00,
2013-02-11 12:30:00,57.2,49.0,29.14,WSW,248,5.4,5.4,74,0.00,,,0.04,WUHU216HW,2013-02-11 17:30:00,
2013-02-11 12:35:00,57.2,49.0,29.14,WSW,248,5.4,5.4,74,0.00,,,0.04,WUHU216HW,2013-02-11 17:35:00,
2013-02-11 12:59:00,59.8,50.0,29.12,West,270,7.6,7.6,70,0.00,,,0.04,WUHU216HW,2013-02-11 17:59:00,
2013-02-11 13:00:00,59.8,50.0,29.12,West,270,7.6,7.6,70,0.00,,,0.04,WUHU216HW,2013-02-11 18:00:00,
2013-02-11 13:05:00,59.8,50.0,29.12,West,270,7.6,7.6,70,0.00,,,0.04,WUHU216HW,2013-02-11 18:05:00,
2013-02-11 13:30:00,61.0,50.5,29.10,SSW,203,9.6,9.6,68,0.00,,,0.04,WUHU216HW,2013-02-11 18:30:00,
2013-02-11 13:35:00,61.0,50.5,29.10,SSW,203,9.6,9.6,68,0.00,,,0.04,WUHU216HW,2013-02-11 18:35:00,
2013-02-11 13:59:00,63.2,50.0,29.07,SSW,203,9.2,9.2,62,0.00,,,0.04,WUHU216HW,2013-02-11 18:59:00,
2013-02-11 14:00:00,63.2,50.0,29.07,SSW,203,9.2,9.2,62,0.00,,,0.04,WUHU216HW,2013-02-11 19:00:00,
2013-02-11 14:05:00,63.2,50.0,29.07,SSW,203,9.2,9.2,62,0.00,,,0.04,WUHU216HW,2013-02-11 19:05:00,
2013-02-11 14:29:00,64.6,46.5,29.06,SSW,203,11.4,11.4,52,0.00,,,0.04,WUHU216HW,2013-02-11 19:29:00,
2013-02-11 14:30:00,64.6,46.5,29.06,SSW,203,11.4,11.4,52,0.00,,,0.04,WUHU216HW,2013-02-11 19:30:00,
2013-02-11 14:35:00,64.6,46.5,29.06,SSW,203,11.4,11.4,52,0.00,,,0.04,WUHU216HW,2013-02-11 19:35:00,
2013-02-11 14:59:00,65.3,46.7,29.06,SW,225,21.0,21.0,51,0.00,,,0.04,WUHU216HW,2013-02-11 19:59:00,
2013-02-11 15:00:00,65.3,46.7,29.06,SW,225,21.0,21.0,51,0.00,,,0.04,WUHU216HW,2013-02-11 20:00:00,
2013-02-11 15:05:00,65.3,46.7,29.06,SW,225,21.0,21.0,51,0.00,,,0.04,WUHU216HW,2013-02-11 20:05:00,
2013-02-11 15:30:00,65.7,45.5,29.06,SSW,203,16.1,16.1,48,0.00,,,0.04,WUHU216HW,2013-02-11 20:30:00,
2013-02-11 15:35:00,65.7,45.5,29.06,SSW,203,16.1,16.1,48,0.00,,,0.04,WUHU216HW,2013-02-11 20:35:00,
2013-02-11 15:59:00,65.2,44.4,29.05,South,180,12.1,12.1,47,0.00,,,0.04,WUHU216HW,2013-02-11 20:59:00,
2013-02-11 16:00:00,65.2,44.4,29.05,South,180,12.1,12.1,47,0.00,,,0.04,WUHU216HW,2013-02-11 21:00:00,
2013-02-11 16:05:00,65.2,44.4,29.05,South,180,12.1,12.1,47,0.00,,,0.04,WUHU216HW,2013-02-11 21:05:00,
2013-02-11 16:30:00,64.6,43.8,29.05,SW,225,11.4,11.4,47,0.00,,,0.04,WUHU216HW,2013-02-11 21:30:00,
2013-02-11 16:35:00,64.6,43.8,29.05,SW,225,11.4,11.4,47,0.00,,,0.04,WUHU216HW,2013-02-11 21:35:00,
2013-02-11 16:59:00,63.9,43.8,29.05,SW,225,10.7,10.7,48,0.00,,,0.04,WUHU216HW,2013-02-11 21:59:00,
2013-02-11 17:00:00,63.9,43.8,29.05,SW,225,10.7,10.7,48,0.00,,,0.04,WUHU216HW,2013-02-11 22:00:00,
2013-02-11 17:05:00,63.9,43.8,29.05,SW,225,10.7,10.7,48,0.00,,,0.04,WUHU216HW,2013-02-11 22:05:00,
2013-02-11 17:30:00,63.0,42.3,29.05,SW,225,9.2,9.2,47,0.00,,,0.04,WUHU216HW,2013-02-11 22:30:00,
2013-02-11 17:35:00,63.0,42.3,29.05,SW,225,9.2,9.2,47,0.00,,,0.04,WUHU216HW,2013-02-11 22:35:00,
2013-02-11 18:00:00,61.7,40.6,29.04,WNW,293,12.8,12.8,46,0.00,,,0.04,WUHU216HW,2013-02-11 23:00:00,
2013-02-11 18:05:00,61.7,40.6,29.04,WNW,293,12.8,12.8,46,0.00,,,0.04,WUHU216HW,2013-02-11 23:05:00,
2013-02-11 18:29:00,61.6,27.9,29.05,SSW,203,11.6,11.6,28,0.00,,,0.04,WUHU216HW,2013-02-11 23:29:00,
2013-02-11 18:30:00,61.6,27.9,29.05,SSW,203,11.6,11.6,28,0.00,,,0.04,WUHU216HW,2013-02-11 23:30:00,
2013-02-11 18:35:00,61.6,27.9,29.05,SSW,203,11.6,11.6,28,0.00,,,0.04,WUHU216HW,2013-02-11 23:35:00,
2013-02-11 19:00:00,60.8,23.4,29.06,WSW,248,10.1,10.1,24,0.00,,,0.04,WUHU216HW,2013-02-12 00:00:00,
2013-02-11 19:05:00,60.8,23.4,29.06,WSW,248,10.1,10.1,24,0.00,,,0.04,WUHU216HW,2013-02-12 00:05:00,
2013-02-11 19:30:00,59.8,23.5,29.06,WSW,248,16.3,16.3,25,0.00,,,0.04,WUHU216HW,2013-02-12 00:30:00,
2013-02-11 19:35:00,59.8,23.5,29.06,WSW,248,16.3,16.3,25,0.00,,,0.04,WUHU216HW,2013-02-12 00:35:00,
2013-02-11 20:00:00,59.4,22.2,29.08,South,180,13.6,13.6,24,0.00,,,0.04,WUHU216HW,2013-02-12 01:00:00,
2013-02-11 20:05:00,59.4,22.2,29.08,South,180,13.6,13.6,24,0.00,,,0.04,WUHU216HW,2013-02-12 01:05:00,
2013-02-11 20:30:00,58.5,22.4,29.09,WNW,293,20.1,20.1,25,0.00,,,0.04,WUHU216HW,2013-02-12 01:30:00,
2013-02-11 20:35:00,58.5,22.4,29.09,WNW,293,20.1,20.1,25,0.00,,,0.04,WUHU216HW,2013-02-12 01:35:00,
2013-02-11 21:00:00,57.6,23.6,29.11,WSW,248,16.8,16.8,27,0.00,,,0.04,WUHU216HW,2013-02-12 02:00:00,
2013-02-11 21:05:00,57.6,23.6,29.11,WSW,248,16.8,16.8,27,0.00,,,0.04,WUHU216HW,2013-02-12 02:05:00,
2013-02-11 21:30:00,57.2,22.3,29.12,West,270,18.3,18.3,26,0.00,,,0.04,WUHU216HW,2013-02-12 02:30:00,
2013-02-11 21:35:00,57.2,22.3,29.12,West,270,18.3,18.3,26,0.00,,,0.04,WUHU216HW,2013-02-12 02:35:00,
2013-02-11 22:00:00,56.0,23.0,29.14,West,270,11.0,11.0,28,0.00,,,0.04,WUHU216HW,2013-02-12 03:00:00,
2013-02-11 22:05:00,56.0,23.0,29.14,West,270,11.0,11.0,28,0.00,,,0.04,WUHU216HW,2013-02-12 03:05:00,
2013-02-11 22:29:00,54.2,24.1,29.16,West,270,19.7,19.7,31,0.00,,,0.04,WUHU216HW,2013-02-12 03:29:00,
2013-02-11 22:30:00,54.2,24.1,29.16,West,270,19.7,19.7,31,0.00,,,0.04,WUHU216HW,2013-02-12 03:30:00,
2013-02-11 22:35:00,54.2,24.1,29.16,West,270,19.7,19.7,31,0.00,,,0.04,WUHU216HW,2013-02-12 03:35:00,
2013-02-11 22:59:00,53.3,24.1,29.17,WSW,248,13.2,13.2,32,0.00,,,0.04,WUHU216HW,2013-02-12 03:59:00,
2013-02-11 23:00:00,53.3,24.1,29.17,WSW,248,13.2,13.2,32,0.00,,,0.04,WUHU216HW,2013-02-12 04:00:00,
2013-02-11 23:05:00,53.3,24.1,29.17,WSW,248,13.2,13.2,32,0.00,,,0.04,WUHU216HW,2013-02-12 04:05:00,
2013-02-11 23:29:00,51.7,24.7,29.18,West,270,9.2,9.2,35,0.00,,,0.04,WUHU216HW,2013-02-12 04:29:00,
2013-02-11 23:30:00,51.7,24.7,29.18,West,270,9.2,9.2,35,0.00,,,0.04,WUHU216HW,2013-02-12 04:30:00,
2013-02-11 23:35:00,51.7,24.7,29.18,West,270,9.2,9.2,35,0.00,,,0.04,WUHU216HW,2013-02-12 04:35:00,
2013-02-11 23:59:00,50.6,26.5,29.19,WNW,293,10.7,10.7,39,0.00,,,0.04,WUHU216HW,2013-02-12 04:59:00,